Location: Great Falls
(47.5000°N, 111.3000°W)
Time: 06:58:55
(UTC-06:00)

ISS - Pass Details

Date: 26 April 2025
Orbit: 416 x 420 km, 51.6° (Epoch: 15 May)

Event Time Altitude Azimuth Distance (km) Brightness Sun altitude
Exits shadow 04:16:31 55° 204° (SSW) 504 -3.8 -17.6°
Maximum altitude 04:17:02 68° 152° (SSE) 454 -3.8 -17.6°
Drops below altitude 10° 04:20:22 10° 69° (ENE) 1,497 0.1 -17.2°
Sets 04:22:29 0° 66° (ENE) 2,364 1.4 -16.9°
